FW0270 Weather Reports


Display with metric or nautical units.
time (UTC)temp
F
wind
direction
speed
MPH
gust
MPH
rain 1hr
in
rain 24hr
in
rain mn
in
humidity
%
barometer
mb
20260504011517 65 298 0.0 1.0 0.00 0.00 0.00 40 1006.3
20260504010016 68 298 0.0 1.0 0.00 0.00 0.00 37 1006.2
20260504004515 70 298 0.0 4.0 0.00 0.00 0.00 35 1006.2
20260504003013 71 290 1.0 6.0 0.00 0.00 0.00 32 1006.1
20260504001513 72 301 2.0 7.0 0.00 0.00 0.00 31 1006.1
20260504000013 73 293 2.0 7.0 0.00 0.00 0.00 32 1006.1
20260503234511 73 308 4.0 9.0 0.00 0.00 0.00 30 1005.9
20260503233010 73 5 3.0 12.0 0.00 0.00 0.00 29 1005.9
20260503231509 74 282 3.0 9.0 0.00 0.00 0.00 30 1005.8
20260503230012 74 26 3.0 11.0 0.00 0.00 0.00 27 1005.9
20260503224507 75 306 4.0 15.0 0.00 0.00 0.00 28 1005.8
20260503223006 75 34 8.0 13.0 0.00 0.00 0.00 28 1005.8
20260503221504 75 297 5.0 14.0 0.00 0.00 0.00 27 1005.7
20260503220006 75 19 4.0 12.0 0.00 0.00 0.00 30 1005.7
20260503214502 75 121 5.0 13.0 0.00 0.00 0.00 33 1005.8
20260503213002 75 255 4.0 13.0 0.00 0.00 0.00 31 1005.6
20260503211610 75 310 6.0 13.0 0.00 0.00 0.00 31 1005.7
20260503210059 75 300 5.0 13.0 0.00 0.00 0.00 32 1005.6
20260503204602 75 304 4.0 12.0 0.00 0.00 0.00 35 1005.8
20260503203057 74 26 5.0 15.0 0.00 0.00 0.00 33 1005.7
20260503201558 75 342 5.0 14.0 0.00 0.00 0.00 35 1005.8
20260503200056 75 321 4.0 13.0 0.00 0.00 0.00 34 1006.0
20260503194555 74 240 4.0 13.0 0.00 0.00 0.00 36 1005.7
20260503193054 74 343 8.0 15.0 0.00 0.00 0.00 36 1005.9
20260503191549 74 77 5.0 11.0 0.00 0.00 0.00 38 1006.1
20260503190051 74 274 4.0 9.0 0.00 0.00 0.00 38 1006.2
20260503184545 73 337 2.0 12.0 0.00 0.00 0.00 40 1006.3
20260503183043 72 287 4.0 9.0 0.00 0.00 0.00 39 1006.3
20260503181613 72 229 3.0 8.0 0.00 0.00 0.00 43 1006.7
20260503180040 71 315 2.0 8.0 0.00 0.00 0.00 43 1006.9
20260503174533 70 287 4.0 13.0 0.00 0.00 0.00 44 1007.1
20260503173043 69 284 1.0 10.0 0.00 0.00 0.00 48 1007.2
20260503171525 68 280 2.0 8.0 0.00 0.00 0.00 48 1007.5
20260503150105 60 203 6.0 14.0 0.00 0.00 0.00 50 1008.8
20260503100106 50 136 0.0 1.0 0.00 0.00 0.00 59 1013.4
20260503081548 51 137 0.0 1.0 0.00 0.00 0.00 63 1014.3
20260503071538 53 54 3.0 8.0 0.00 0.00 0.00 52 1014.2
20260503054526 50 179 0.0 7.0 0.00 0.00 0.00 55 1014.6
20260503053035 50 220 0.0 7.0 0.00 0.00 0.00 55 1014.8
20260503051523 50 218 0.0 5.0 0.00 0.00 0.00 55 1014.9
20260503050021 50 233 0.0 6.0 0.00 0.00 0.00 55 1015.0
20260503044548 51 221 0.0 4.0 0.00 0.00 0.00 55 1015.1
20260503043018 51 224 1.0 5.0 0.00 0.00 0.00 54 1015.2
20260503041519 51 212 1.0 5.0 0.00 0.00 0.00 54 1015.3
20260503040017 51 239 0.0 3.0 0.00 0.00 0.00 54 1015.5
20260503034514 51 226 0.0 4.0 0.00 0.00 0.00 54 1015.7
20260503033014 51 169 0.0 5.0 0.00 0.00 0.00 53 1016.0
20260503031512 51 204 0.0 6.0 0.00 0.00 0.00 52 1016.1
20260503030013 51 235 1.0 4.0 0.00 0.00 0.00 50 1016.2
20260503024511 51 234 0.0 6.0 0.00 0.00 0.00 50 1016.2
20260503023011 51 233 0.0 4.0 0.00 0.00 0.00 50 1016.4
20260503021517 51 224 0.0 2.0 0.00 0.00 0.00 49 1016.3
20260503020010 51 232 0.0 2.0 0.00 0.00 0.00 48 1016.3
20260503014509 52 231 0.0 2.0 0.00 0.00 0.00 47 1016.1
20260503013009 53 241 0.0 1.0 0.00 0.00 0.00 45 1016.0